Location: Buckhorn Peak
(37.6641°N, 120.1241°W)
Time: 23:08:35
(UTC+00:00)

Vanguard 1 Rocket - Pass Details

Date: 10 November 2024
Orbit: 650 x 4218 km, 34.3° (Epoch: 06 December)

Event Time Altitude Azimuth Distance (km) Brightness Sun altitude
Rises 03:11:59 0° 280° (W) 5,074 12.4 -27.6°
Reaches altitude 10° 03:16:48 10° 267° (W) 3,459 11.3 -28.5°
Maximum altitude 03:22:30 21° 221° (SW) 2,060 9.5 -29.7°
Enters shadow 03:25:22 15° 184° (S) 2,133 9.3 -30.2°
